Location: *
(49.5667°N, 1.3667°W)
Time: 12:28:23
(UTC+00:00)

Cosmos 1850 Rocket - Pass Details

Date: 20 September 2019
Orbit: 755 x 785 km, 74.0° (Epoch: 15 October)

Event Time Altitude Azimuth Distance (km) Brightness Sun altitude
Rises 20:02:45 0° 339° (NNW) 3,224 7.9 -18.7°
Reaches altitude 10° 20:05:13 10° 345° (NNW) 2,294 7.0 -19.1°
Maximum altitude 20:10:14 48° 60° (ENE) 986 4.3 -19.8°
Enters shadow 20:11:27 40° 99° (E) 1,106 4.3 -20.0°
